TimeCST,TemperatureF,Dew PointF,Humidity,Sea Level PressureIn,VisibilityMPH,Wind Direction,Wind SpeedMPH,Gust SpeedMPH,PrecipitationIn,Events,Conditions,WindDirDegrees,DateUTC
12:53 AM,28.9,23.0,78,30.08,10.0,South,5.8,-,N/A,,Clear,180,2013-01-08 06:53:00
1:53 AM,27.0,21.9,81,30.08,10.0,South,3.5,-,N/A,,Clear,180,2013-01-08 07:53:00
2:53 AM,28.0,23.0,81,30.08,10.0,South,3.5,-,N/A,,Clear,190,2013-01-08 08:53:00
3:53 AM,25.0,21.9,88,30.08,8.0,South,5.8,-,N/A,,Clear,180,2013-01-08 09:53:00
4:53 AM,24.1,21.0,88,30.08,6.0,Calm,Calm,-,N/A,,Clear,0,2013-01-08 10:53:00
5:53 AM,23.0,19.0,85,30.09,5.0,Calm,Calm,-,N/A,,Clear,0,2013-01-08 11:53:00
6:53 AM,18.0,16.0,92,30.11,4.0,Calm,Calm,-,N/A,,Scattered Clouds,0,2013-01-08 12:53:00
7:23 AM,17.6,17.6,100,30.07,1.8,South,3.5,-,N/A,,Clear,170,2013-01-08 13:23:00
7:41 AM,23.0,19.4,86,30.07,2.0,South,3.5,-,N/A,,Clear,170,2013-01-08 13:41:00
7:53 AM,23.0,21.0,92,30.11,2.0,South,5.8,-,N/A,,Clear,180,2013-01-08 13:53:00
8:46 AM,26.6,23.0,86,30.08,3.0,South,6.9,-,N/A,,Clear,170,2013-01-08 14:46:00
8:53 AM,26.1,23.0,88,30.11,3.0,South,5.8,-,N/A,,Clear,180,2013-01-08 14:53:00
9:53 AM,28.0,24.1,85,30.11,3.0,South,6.9,-,N/A,,Clear,180,2013-01-08 15:53:00
10:53 AM,32.0,26.1,79,30.09,6.0,South,9.2,-,N/A,,Haze,180,2013-01-08 16:53:00
11:53 AM,34.0,26.1,73,30.07,7.0,South,8.1,-,N/A,,Clear,190,2013-01-08 17:53:00
12:53 PM,36.0,27.0,70,30.05,9.0,South,10.4,-,N/A,,Clear,170,2013-01-08 18:53:00
1:53 PM,36.0,27.0,70,30.04,9.0,South,12.7,-,N/A,,Clear,180,2013-01-08 19:53:00
2:53 PM,37.0,28.0,70,30.04,9.0,South,12.7,-,N/A,,Clear,180,2013-01-08 20:53:00
3:53 PM,37.0,28.9,73,30.02,10.0,South,11.5,-,N/A,,Clear,170,2013-01-08 21:53:00
4:53 PM,37.0,28.9,73,30.00,9.0,South,12.7,-,N/A,,Clear,170,2013-01-08 22:53:00
5:53 PM,36.0,28.9,76,29.99,10.0,South,11.5,-,N/A,,Clear,170,2013-01-08 23:53:00
6:53 PM,37.0,28.9,73,29.98,10.0,South,12.7,-,N/A,,Clear,180,2013-01-09 00:53:00
7:53 PM,37.0,28.0,70,29.99,10.0,South,11.5,-,N/A,,Partly Cloudy,190,2013-01-09 01:53:00
8:53 PM,37.9,28.9,70,29.98,10.0,SSW,13.8,23.0,N/A,,Partly Cloudy,200,2013-01-09 02:53:00
9:53 PM,39.0,30.0,70,29.97,10.0,SSW,15.0,21.9,N/A,,Overcast,200,2013-01-09 03:53:00
10:53 PM,37.9,30.0,73,29.95,10.0,South,15.0,21.9,N/A,,Partly Cloudy,190,2013-01-09 04:53:00
11:53 PM,37.9,30.0,73,29.95,10.0,SSW,11.5,18.4,N/A,,Clear,210,2013-01-09 05:53:00